Content
SEND FEEDBACK

Daily
Averages
Monthly
Summary
United States of America

OLGA, WASHINGTON


Home > North America > United States > Washington
Elevation: 2 meters     Latitude: 48 37N     Longitude: 122 48W

WEATHER
 
SELECT A DAY
Number of Records: 253,408;   Date Range: 5/15/97 - 8/12/14
 
SHARE

PRINT THIS DATA

[ ← Previous Day ]
WEATHER ALMANAC - 31 JANUARY, 2013
[ Next Day → ]
[ °F ]   °C
Weather ElementAverageHighLow
Temperature7.3 °C8 °C (8:15 am)5 °C (3:55 am)
Dewpoint6.9 °C8 °C (8:15 am)5 °C (3:55 am)
Humidity97.2 %100 % (12:35 am)93 % (9:55 am)
Barometer1026.1 hPa1027.8 hPa (1:15 am)1024.7 hPa (2:35 pm)
Wind Speed11.9 km/h24.1 km/h (11:15 am)
Wind Gust35.2 km/h (11:35 am)
Weather ElementAverage
Visibility12.1 km
Wind DirectionSSE (148.1 °)

Weather ElementTotal
Precipitation---
Heating Degree Days11.8 (Base 18.3)
Averaged from 69 records on 31 January, 2013
WEATHER CONDITIONS BREAKOUT
WIND DIRECTION BREAKOUT
WEATHER BY HOUR - 31 JANUARY, 2013
[ °F ]   °C
Local TimeTemperatureDewpointHumidityBarometerVisibilityWind DirectionWind SpeedGust SpeedPrecipitationEventsConditions
12:35 AM6 °C6 °C100 %1027.4 hPa1.9 kmCalmOvercast
12:55 AM6 °C6 °C100 %1027.4 hPa1.6 kmCalmRainLight Rain
1:15 AM6 °C6 °C100 %1027.8 hPa2.4 kmCalmRainLight Rain
1:35 AM6 °C6 °C100 %1027.8 hPa1.3 kmCalmOvercast
1:55 AM6 °C6 °C100 %1027.4 hPa3.2 kmNNW (340°)5.6 km/hOvercast
2:15 AM6 °C6 °C100 %1027.8 hPa3.2 kmCalmRainLight Rain
2:35 AM6 °C6 °C100 %1027.8 hPa4.8 kmCalmOvercast
2:55 AM6 °C6 °C100 %1027.8 hPa6.4 kmCalmOvercast
3:15 AM6 °C6 °C100 %1027.4 hPa4 kmCalmOvercast
3:35 AM6 °C6 °C100 %1027.4 hPa4 kmCalmOvercast
3:55 AM5 °C5 °C100 %1027.4 hPa2.9 kmCalmOvercast
4:15 AM5 °C5 °C100 %1027.4 hPa0.8 kmCalmFogFog
4:55 AM5 °C5 °C100 %1027.4 hPa0.3 kmCalmFogFog
5:15 AM5 °C5 °C100 %1027.1 hPa0.3 kmCalmFogFog
5:35 AM6 °C6 °C100 %1026.8 hPa12.9 kmSSE (160°)7.4 km/hMostly Cloudy
5:55 AM7 °C7 °C100 %1026.4 hPa16.1 kmSouth (190°)7.4 km/hMostly Cloudy
6:15 AM7 °C7 °C100 %1026.8 hPa16.1 kmSouth (190°)13 km/hScattered Clouds
6:35 AM7 °C7 °C100 %1026.8 hPa16.1 kmSSW (200°)16.7 km/hPartly Cloudy
6:55 AM7 °C7 °C100 %1026.8 hPa16.1 kmSSW (200°)14.8 km/hRainLight Rain
7:15 AM7 °C7 °C100 %1026.1 hPa16.1 kmSouth (190°)16.7 km/hPartly Cloudy
7:35 AM7 °C7 °C100 %1026.1 hPa16.1 kmSouth (190°)20.4 km/hMostly Cloudy
7:55 AM7 °C7 °C100 %1026.1 hPa16.1 kmSouth (190°)18.5 km/hRainLight Rain
8:15 AM8 °C8 °C100 %1026.4 hPa9.7 kmSouth (190°)14.8 km/hRainLight Rain
8:35 AM8 °C8 °C100 %1026.4 hPa11.3 kmSouth (180°)9.3 km/hRainLight Rain
8:55 AM8 °C8 °C100 %1026.1 hPa12.9 kmSouth (190°)14.8 km/hRainLight Rain
9:15 AM8 °C8 °C100 %1026.1 hPa16.1 kmSouth (170°)11.1 km/hOvercast
9:35 AM8 °C8 °C100 %1026.1 hPa16.1 kmSouth (170°)11.1 km/hOvercast
9:55 AM8 °C7 °C93 %1026.1 hPa16.1 kmSouth (170°)9.3 km/hOvercast
10:15 AM8 °C7 °C93 %1026.1 hPa16.1 kmSouth (180°)9.3 km/hOvercast
10:35 AM8 °C7 °C93 %1026.1 hPa8 kmSouth (170°)7.4 km/hRainLight Rain
10:55 AM8 °C8 °C100 %1025.7 hPa8 kmSouth (180°)14.8 km/hRainLight Rain
11:15 AM8 °C7 °C93 %1025.7 hPa12.9 kmSSW (200°)24.1 km/hOvercast
11:35 AM8 °C7 °C93 %1025.7 hPa16.1 kmSouth (190°)20.4 km/h35.2 km/hOvercast
11:55 AM8 °C7 °C93 %1025.4 hPa16.1 kmSSW (200°)16.7 km/hOvercast
12:15 PM8 °C7 °C93 %1025.4 hPa16.1 kmSouth (190°)20.4 km/h29.6 km/hOvercast
12:35 PM8 °C7 °C93 %1025.4 hPa14.5 kmSouth (190°)20.4 km/h29.6 km/hOvercast
12:55 PM8 °C7 °C93 %1025.1 hPa11.3 kmSouth (180°)14.8 km/hRainLight Rain
1:15 PM8 °C7 °C93 %1025.1 hPa4.8 kmSouth (180°)22.2 km/h29.6 km/hRainLight Rain
1:35 PM8 °C7 °C93 %1025.1 hPa1.9 kmSSW (200°)16.7 km/hRainLight Rain
1:55 PM8 °C8 °C100 %1025.1 hPa3.2 kmSouth (180°)18.5 km/hRainLight Rain
2:15 PM8 °C8 °C100 %1025.1 hPa11.3 kmSW (230°)20.4 km/h31.5 km/hMostly Cloudy
2:35 PM8 °C8 °C100 %1024.7 hPa14.5 kmSSW (200°)20.4 km/hMostly Cloudy
2:55 PM8 °C8 °C100 %1024.7 hPa14.5 kmSouth (190°)24.1 km/h31.5 km/hMostly Cloudy
3:15 PM8 °C8 °C100 %1024.7 hPa14.5 kmSSW (200°)18.5 km/hOvercast
3:35 PM8 °C8 °C100 %1024.7 hPa16.1 kmSSW (200°)20.4 km/hOvercast
3:55 PM8 °C8 °C100 %1024.7 hPa16.1 kmSSW (200°)22.2 km/hOvercast
4:15 PM8 °C7 °C93 %1024.7 hPa16.1 kmSSW (200°)18.5 km/hMostly Cloudy
4:35 PM8 °C7 °C93 %1024.7 hPa16.1 kmSSW (210°)18.5 km/hMostly Cloudy
4:55 PM8 °C7 °C93 %1024.7 hPa16.1 kmSSW (200°)20.4 km/h27.8 km/hScattered Clouds
5:15 PM8 °C7 °C93 %1024.7 hPa16.1 kmSSW (200°)18.5 km/hPartly Cloudy
5:35 PM8 °C7 °C93 %1024.7 hPa16.1 kmSSW (200°)20.4 km/hPartly Cloudy
5:55 PM8 °C7 °C93 %1024.7 hPa16.1 kmSouth (190°)16.7 km/hPartly Cloudy
6:15 PM8 °C7 °C93 %1024.7 hPa16.1 kmSSW (200°)20.4 km/hPartly Cloudy
6:35 PM8 °C7 °C93 %1024.7 hPa16.1 kmSSW (200°)18.5 km/h29.6 km/hMostly Cloudy
6:55 PM8 °C7 °C93 %1024.7 hPa16.1 kmSouth (190°)16.7 km/hMostly Cloudy
7:15 PM8 °C7 °C93 %1025.1 hPa16.1 kmSouth (180°)13 km/hMostly Cloudy
7:35 PM8 °C7 °C93 %1025.1 hPa16.1 kmSouth (180°)14.8 km/hMostly Cloudy
7:55 PM8 °C7 °C93 %1025.1 hPa16.1 kmSouth (180°)13 km/hOvercast
8:15 PM8 °C7 °C93 %1025.4 hPa16.1 kmSouth (190°)13 km/hOvercast
8:35 PM8 °C7 °C93 %1025.4 hPa16.1 kmSSW (200°)18.5 km/hOvercast
8:55 PM8 °C7 °C93 %1025.1 hPa16.1 kmSSW (200°)18.5 km/hOvercast
9:35 PM8 °C7 °C93 %1025.7 hPa16.1 kmSouth (180°)9.3 km/hOvercast
9:55 PM7 °C7 °C100 %1026.1 hPa16.1 kmSouth (180°)5.6 km/hScattered Clouds
10:15 PM7 °C6 °C93 %1026.1 hPa16.1 kmSSW (200°)5.6 km/hMostly Cloudy
10:35 PM7 °C7 °C100 %1026.1 hPa16.1 kmCalmOvercast
10:55 PM7 °C7 °C100 %1026.1 hPa16.1 kmSouth (180°)5.6 km/hOvercast
11:15 PM7 °C7 °C100 %1026.1 hPa16.1 kmNorthOvercast
11:35 PM7 °C7 °C100 %1026.4 hPa16.1 kmSouth (180°)5.6 km/hOvercast
11:55 PM7 °C7 °C100 %1026.8 hPa16.1 kmCalmOvercast
Hourly data recorded from KORS, located 0 kilometers away from Olga, Washington







STORIES FROM OUR PARTNERS